Laramie, WY

6:00 PM MDT on August 24, 2016 (GMT -0600)
Laramie Regional

Weather History for KLAR - September, 2013

Change the Weather History Date:

Saturday, September 14, 2013

  Actual Average Record
Temperature  
Mean Temperature 58 °F 54 °F  
Max Temperature 68 °F 69 °F 86 °F (1948)
Min Temperature 47 °F 39 °F 20 °F (1993)
Degree Days  
Heating Degree Days 7 11  
Month to date heating degree days 48 120  
Since 1 July heating degree days 119 292  
Cooling Degree Days 0 0  
Month to date cooling degree days 24 0  
Year to date cooling degree days 162 66  
Growing Degree Days 7 (Base 50)    
Moisture  
Dew Point 49 °F    
Average Humidity 76    
Maximum Humidity 100    
Minimum Humidity 52    
Precipitation  
Precipitation 0.22 in 0.04 in 0.47 in (1988)
Month to date precipitation 2.67 0.53  
Year to date precipitation 9.00 8.68  
Sea Level Pressure  
Sea Level Pressure 29.93 in    
Wind  
Wind Speed 8 mph (WNW)    
Max Wind Speed 26 mph    
Max Gust Speed 30 mph    
Visibility 9 miles    
Events Rain , Thunderstorm    
T = Trace of Precipitation, MM = Missing Value Source: NWS Daily Summary

Daily Weather History Graph

Daily Weather History Graph

Search for Another Location

Airport or City:

Trip Planner

Search our weather history database for the weather conditions in past years. The results will help you decide how hot, cold, wet, or windy it might be!

Date:

Astronomy

Sep. 14, 2013 Rise Set
Actual Time 6:42 AM MDT 7:13 PM MDT
Civil Twilight 6:14 AM MDT 7:40 PM MDT
Nautical Twilight 5:41 AM MDT 8:13 PM MDT
Astronomical Twilight 5:08 AM MDT 8:47 PM MDT
Moon 3:59 PM MDT (9/14) 1:14 AM MDT (9/14)
Length of Visible Light 13h 26m
Length of Day
12h 30m
Waxing Gibbous, 73% of the Moon is Illuminated
Sep 14
Waxing Gibbous
Sep 19
Full
Sep 26
Last Quarter
Oct 4
New
Oct 11
First Quarter

Hourly Weather History & Observations

Time (MDT) Temp. Dew Point Humidity Pressure Visibility Wind Dir Wind Speed Gust Speed Precip Events Conditions
12:53 AM 52.0 °F 51.1 °F 97% 29.82 in 10.0 mi South 6.9 mph - N/A   Overcast
1:53 AM 48.9 °F 48.0 °F 97% 29.82 in 10.0 mi SSW 5.8 mph - N/A   Clear
2:53 AM 48.9 °F 46.9 °F 93% 29.80 in 10.0 mi SSW 9.2 mph - N/A   Clear
3:53 AM 48.0 °F 46.0 °F 93% 29.80 in 10.0 mi South 9.2 mph - N/A   Clear
4:53 AM 48.0 °F 46.0 °F 93% 29.80 in 10.0 mi South 6.9 mph - N/A   Mostly Cloudy
5:53 AM 48.0 °F 46.0 °F 93% 29.81 in 10.0 mi SSW 5.8 mph - N/A   Scattered Clouds
6:53 AM 48.0 °F 45.0 °F 89% 29.82 in 10.0 mi South 6.9 mph - N/A   Partly Cloudy
7:53 AM 51.1 °F 46.0 °F 83% 29.83 in 10.0 mi SSW 8.1 mph - N/A   Clear
8:53 AM 57.0 °F 48.0 °F 72% 29.82 in 10.0 mi SSW 8.1 mph - N/A   Clear
9:53 AM 63.0 °F 46.9 °F 56% 29.81 in 10.0 mi SSW 12.7 mph - N/A   Partly Cloudy
10:53 AM 64.0 °F 46.9 °F 54% 29.81 in 10.0 mi SW 9.2 mph - N/A   Clear
11:53 AM 64.9 °F 46.9 °F 52% 29.80 in 10.0 mi West 8.1 mph - N/A   Mostly Cloudy
12:53 PM 64.9 °F 46.9 °F 52% 29.80 in 10.0 mi WSW 5.8 mph - N/A   Mostly Cloudy
1:20 PM 64.4 °F 46.4 °F 52% 30.08 in 10.0 mi Calm Calm - N/A Thunderstorm Mostly Cloudy
1:35 PM 60.8 °F 50.0 °F 68% 30.08 in 7.0 mi WNW 24.2 mph 29.9 mph 0.00 in Rain Light Rain
1:50 PM 60.8 °F 46.4 °F 59% 30.08 in 10.0 mi NNW 8.1 mph - 0.00 in Thunderstorm Thunderstorm
1:51 PM 60.1 °F 46.0 °F 60% 29.83 in 10.0 mi NNW 8.1 mph - 0.00 in Thunderstorm Thunderstorm
2:28 PM 66.2 °F 50.0 °F 56% 30.07 in 10.0 mi NE 8.1 mph - N/A   Scattered Clouds
2:53 PM 66.0 °F 50.0 °F 56% 29.78 in 10.0 mi NNW 6.9 mph - N/A   Clear
3:53 PM 66.0 °F 48.9 °F 54% 29.79 in 10.0 mi North 11.5 mph - N/A   Partly Cloudy
4:34 PM 60.8 °F 46.4 °F 59% 30.08 in 10.0 mi SSE 18.4 mph - N/A Thunderstorm Thunderstorm
4:53 PM 59.0 °F 46.9 °F 64% 29.84 in 8.0 mi SE 8.1 mph - 0.00 in Rain , Thunderstorm Light Thunderstorms and Rain
5:53 PM 57.0 °F 51.1 °F 81% 29.86 in 10.0 mi NNW 8.1 mph - 0.02 in Thunderstorm Mostly Cloudy
6:21 PM 57.2 °F 50.0 °F 77% 30.09 in 10.0 mi NNW 8.1 mph - N/A   Overcast
6:53 PM 55.9 °F 50.0 °F 80% 29.88 in 10.0 mi ENE 9.2 mph - N/A   Mostly Cloudy
7:53 PM 55.0 °F 52.0 °F 89% 29.90 in 10.0 mi NW 10.4 mph - N/A   Overcast
8:39 PM 53.6 °F 51.8 °F 94% 30.15 in 10.0 mi NW 9.2 mph - 0.00 in Rain Light Rain
8:53 PM 53.1 °F 51.1 °F 93% 29.91 in 10.0 mi WNW 5.8 mph - 0.00 in Rain Light Rain
9:08 PM 53.6 °F 48.2 °F 82% 30.16 in 1.8 mi NW 9.2 mph - 0.05 in Rain Heavy Rain
9:20 PM 53.6 °F 50.0 °F 88% 30.16 in 2.0 mi NW 10.4 mph - 0.10 in Rain Rain
9:30 PM 51.8 °F 50.0 °F 94% 30.16 in 4.0 mi NW 11.5 mph - 0.12 in Rain Rain
9:53 PM 52.0 °F 51.1 °F 97% 29.90 in 3.0 mi NNW 9.2 mph - 0.17 in Rain Rain
10:53 PM 53.1 °F 52.0 °F 96% 29.91 in 10.0 mi NNW 4.6 mph - 0.03 in Rain Light Rain
11:08 PM 53.6 °F 51.8 °F 94% 30.19 in 10.0 mi NNW 6.9 mph - 0.00 in Rain Light Rain
11:31 PM 51.8 °F 51.8 °F 100% 30.19 in 10.0 mi NW 3.5 mph - 0.00 in   Overcast
11:53 PM 52.0 °F 51.1 °F 97% 29.90 in 10.0 mi WNW 3.5 mph - 0.00 in   Overcast